This is the latest recevied weather packets stored in our database for station/object lw9ero. If no packets are shown the sender has not sent any weather packets the latest 10 day(s).
| Time | Temp. | Humidity | Pressure | Rain* | Wind** | Luminosity | Snow |
|---|---|---|---|---|---|---|---|
| 1778228805 | 8.33° C | 82% | 1006.9 hPa | 0 mm | - | 300 W/m² | - |
| 1778228197 | 8.33° C | 82% | 1006.8 hPa | 0 mm | - | 300 W/m² | - |
| 1778227591 | 8.33° C | 82% | 1006.7 hPa | 0 mm | - | 300 W/m² | - |
| 1778226985 | 7.78° C | 85% | 1006.8 hPa | 0 mm | - | 190 W/m² | - |
| 1778226380 | 7.78° C | 88% | 1006.8 hPa | 0 mm | - | 190 W/m² | - |
| 1778225775 | 7.78° C | 89% | 1006.7 hPa | 0 mm | - | 190 W/m² | - |
| 1778225166 | 7.78° C | 89% | 1006.8 hPa | 0 mm | - | 7 W/m² | - |
| 1778224560 | 7.78° C | 87% | 1006.8 hPa | 0 mm | - | 7 W/m² | - |
| 1778223954 | 8.33° C | 84% | 1007.2 hPa | 0 mm | - | 7 W/m² | - |
| 1778223348 | 8.89° C | 77% | 1007.1 hPa | 0 mm | - | - | - |
| 1778222743 | 8.89° C | 75% | 1007 hPa | 0 mm | - | - | - |
| 1778222135 | 8.89° C | 74% | 1007.1 hPa | 0 mm | - | - | - |
| 1778221530 | 8.89° C | 74% | 1007.1 hPa | 0 mm | - | - | - |
| 1778220923 | 9.44° C | 73% | 1007.3 hPa | 0 mm | - | - | - |
| 1778220320 | 9.44° C | 74% | 1007.3 hPa | 0 mm | - | - | - |
| 1778219718 | 9.44° C | 75% | 1007.4 hPa | 0 mm | - | - | - |
| 1778219105 | 9.44° C | 74% | 1007.6 hPa | 0 mm | - | - | - |
| 1778218499 | 9.44° C | 73% | 1007.4 hPa | 0 mm | - | - | - |
| 1778217893 | 9.44° C | 72% | 1007.5 hPa | 0 mm | - | - | - |
| 1778217286 | 9.44° C | 71% | 1007.2 hPa | 0 mm | - | - | - |
| 1778216680 | 9.44° C | 73% | 1007.3 hPa | 0 mm | - | - | - |
| 1778216074 | 9.44° C | 74% | 1007.1 hPa | 0 mm | - | - | - |
| 1778215468 | 9.44° C | 73% | 1007.4 hPa | 0 mm | - | - | - |
| 1778214862 | 9.44° C | 73% | 1007.3 hPa | 0 mm | - | - | - |
| 1778214257 | 9.44° C | 76% | 1007.6 hPa | 0 mm | - | - | - |
* Rain latest hour (hover to see other rain measurements)
** Current wind speed in m/s (hover to see current wind gust speed)